Theta_e
317 325 328 325 324 324 327 329 329 323 320 321 323 323 323 321 317 319 319 319 320 323 323 324 322 321 319 320 320 319 317 315 314 313 312 311 311 311 311 310 311 309 309 307
320 322 318 319 324 326 325 326 325 321 318 320 320 320 317 315 317 317 318 318 318 318 318 317 318 319 318 318 318 319 318 317 315 314 313 312 311 310 310 310 311 310 309 309
322 317 315 318 321 323 321 326 323 323 317 315 316 317 315 314 313 313 314 314 314 315 315 315 315 315 317 317 317 317 318 317 315 314 314 312 310 309 309 308 310 311 309 308
317 314 316 317 316 317 319 317 318 317 317 319 315 326 316 315 317 315 313 314 313 313 313 312 311 312 313 314 315 315 314 315 314 314 314 313 313 313 312 310 309 309 308 307
315 315 316 316 315 314 316 314 316 316 317 316 316 321 315 314 317 315 312 311 311 309 309 310 310 310 310 310 311 312 312 312 313 313 313 314 313 313 313 309 310 309 308 307
311 309 312 313 311 313 312 313 312 313 315 319 315 317 316 316 313 312 310 309 308 307 308 309 309 308 309 309 309 309 310 311 311 311 312 313 313 313 311 310 310 310 309 308
314 312 310 311 315 312 314 314 315 316 320 315 313 314 315 312 309 309 310 309 308 308 309 310 310 309 309 309 308 308 308 309 309 309 310 311 312 312 311 310 310 310 310 308
318 316 312 310 313 315 314 313 310 308 312 314 312 313 314 309 307 306 307 307 308 308 308 309 308 309 309 308 307 307 307 308 308 308 309 309 310 311 311 311 309 311 310 309
315 314 307 308 309 310 314 316 311 313 309 314 310 310 308 307 307 307 307 308 307 308 308 308 307 307 307 308 307 306 306 307 307 307 307 308 308 308 309 309 309 307 309 309
309 310 306 309 309 310 312 311 315 315 314 311 309 311 310 310 310 308 309 308 307 306 306 306 306 305 305 305 305 305 305 306 306 306 306 306 307 307 307 306 307 306 306 308
306 308 308 309 310 313 313 314 312 313 313 311 311 308 309 310 308 308 307 306 305 306 305 305 303 303 303 303 303 303 303 303 303 304 304 304 304 304 305 305 305 305 304 304
305 308 310 309 305 303 309 312 312 312 312 313 313 311 306 307 306 305 306 305 306 305 305 303 302 302 302 301 301 301 301 301 300 301 301 302 302 303 302 302 302 302 302 302
306 309 311 306 305 305 307 308 310 311 312 313 313 310 306 306 306 306 306 306 306 305 304 303 302 300 299 298 298 298 299 299 298 299 299 299 300 300 300 301 301 301 301 300
305 305 306 307 306 306 307 307 307 309 312 309 311 308 308 309 308 306 307 306 304 304 303 302 301 297 296 295 296 296 296 297 296 297 297 297 298 298 298 298 298 298 299 300
306 309 306 305 305 306 306 307 307 308 308 308 307 307 307 306 307 306 305 304 303 302 301 300 297 296 295 294 295 295 295 296 296 296 296 296 296 296 296 296 296 296 296 295
305 308 307 307 306 307 307 308 308 308 308 308 308 308 307 305 305 304 303 302 301 300 300 296 295 295 294 294 294 294 294 295 295 296 295 294 294 295 295 295 294 294 294 294
306 306 308 309 299 299 304 302 305 305 304 305 305 304 303 303 301 302 300 300 300 299 298 295 294 294 294 294 294 294 293 294 295 295 295 294 294 293 293 294 293 292 292 292
302 303 304 305 294 306 304 296 298 303 303 303 303 303 302 301 301 299 300 299 299 300 298 295 295 293 294 294 293 293 292 293 293 293 293 294 294 293 292 293 292 291 291 291
299 303 300 304 302 299 301 299 298 299 301 301 300 300 301 299 296 298 298 298 299 300 298 295 293 293 293 293 292 292 291 292 292 292 291 292 293 292 291 292 292 291 290 290
297 302 304 296 302 302 299 296 296 298 300 300 300 300 300 296 296 297 297 298 298 297 296 293 292 292 292 291 291 291 291 291 291 291 291 290 290 290 290 291 291 290 289 288
303 303 304 299 302 300 298 294 294 299 303 295 297 298 296 296 298 297 297 296 295 293 291 291 291 291 291 290 290 290 290 290 290 290 289 289 289 289 289 290 290 289 288 287
301 302 302 301 301 301 296 294 298 300 294 296 295 296 296 297 297 297 296 295 293 291 291 290 290 290 290 289 289 289 289 289 289 288 288 288 288 288 288 288 288 288 287 286
299 299 301 301 301 298 296 298 297 295 296 294 296 297 297 296 295 295 295 293 292 291 290 290 289 289 288 288 288 288 288 287 287 287 287 287 286 286 286 286 286 286 286 286
288 284 294 297 299 295 293 294 292 294 294 294 294 295 294 294 294 293 292 291 291 291 290 289 288 288 288 288 287 287 287 286 286 286 286 286 286 286 285 285 285 285 286 285
290 288 292 291 291 290 292 293 294 294 292 292 292 292 292 292 292 291 291 290 290 290 289 289 288 288 288 287 287 287 286 286 285 285 285 285 285 285 285 285 285 285 285 286
286 291 293 295 295 295 295 294 292 291 291 292 291 291 289 289 290 290 290 290 289 289 289 288 287 287 287 286 286 286 285 285 284 284 284 285 285 285 285 285 285 284 284 284
Wind_Speed
3 4 6 8 3 5 9 7 6 3 3 3 1 7 11 7 10 12 11 10 12 14 15 16 16 15 14 14 13 15 15 14 14 13 11 12 14 16 14 9 10 8 7 9
6 5 2 5 9 12 7 10 4 3 4 3 5 12 10 5 7 8 11 11 11 11 10 13 15 16 19 20 19 18 19 18 18 16 15 11 10 14 15 13 12 11 9 9
5 1 1 9 10 14 6 6 4 4 4 3 10 2 5 3 3 4 4 4 6 9 10 10 14 17 18 22 22 22 21 19 19 18 14 12 14 12 9 12 14 15 13 11
7 3 4 10 8 4 5 3 7 5 4 1 6 2 4 6 10 13 12 12 10 10 9 9 11 14 15 17 18 19 19 20 19 17 17 17 16 15 11 9 14 13 14 13
3 3 6 8 3 1 5 4 6 4 5 3 4 1 3 2 7 13 13 13 11 10 10 10 11 8 7 9 13 15 17 19 19 18 18 17 19 16 14 14 16 15 15 16
4 2 3 3 4 5 11 6 4 3 2 2 3 3 4 4 6 11 12 12 12 12 12 13 11 9 7 6 7 9 12 16 16 17 19 20 19 17 16 20 22 21 20 20
5 3 3 2 5 2 1 2 1 2 1 2 2 3 5 6 7 6 13 11 11 10 12 11 13 12 11 10 8 7 8 11 13 15 17 19 20 20 21 20 26 27 26 25
4 2 3 4 2 1 2 2 1 2 2 2 1 2 6 7 6 5 7 8 9 13 12 12 13 10 10 11 11 9 9 11 13 15 18 19 19 19 21 21 22 29 28 28
5 2 3 5 2 4 1 2 2 5 2 0 2 2 5 7 4 7 7 11 12 13 12 12 12 10 8 8 8 10 10 11 14 17 18 20 20 21 22 22 21 23 28 30
2 4 2 2 1 6 2 4 2 2 2 1 0 4 7 9 10 3 11 11 8 8 13 13 14 14 12 11 12 12 13 13 14 17 19 23 24 25 25 24 24 25 28 30
2 2 1 1 4 1 2 0 3 2 2 1 0 2 5 12 8 4 4 3 7 11 12 11 12 13 13 11 12 13 14 15 16 17 19 21 23 25 27 30 30 29 27 28
0 3 3 2 1 2 1 2 2 2 3 2 2 6 5 6 6 2 4 4 14 12 12 9 10 12 13 15 16 15 15 16 18 18 18 19 21 23 25 27 27 25 26 26
6 1 4 2 1 1 2 2 4 4 2 7 3 3 3 7 7 2 10 17 15 13 13 11 14 11 12 15 17 18 19 19 21 20 19 20 22 23 26 29 30 30 29 28
2 2 3 5 4 4 5 5 3 3 3 4 11 15 10 12 13 11 15 14 11 10 9 9 7 12 16 19 19 18 19 19 24 26 23 24 23 23 24 25 26 29 32 32
1 2 0 2 4 3 4 7 8 9 10 9 14 16 21 13 15 17 12 9 11 11 9 5 9 13 18 21 22 21 21 20 20 23 24 25 25 24 24 25 25 25 27 30
1 3 2 2 4 1 4 12 13 16 18 17 21 26 21 15 10 6 7 9 9 10 5 6 11 16 19 21 21 21 21 20 21 20 24 27 27 24 24 24 23 22 24 25
3 5 3 2 3 2 8 19 20 12 11 14 14 14 6 5 6 5 8 8 10 8 7 6 11 20 25 26 24 23 23 24 23 24 26 26 24 24 25 24 22 22 22 22
6 5 1 3 1 5 4 4 5 14 15 16 16 18 14 11 5 7 10 8 8 9 10 8 17 24 24 25 30 29 29 28 28 28 26 29 29 27 27 23 22 22 21 24
1 5 3 4 4 7 9 5 8 9 10 13 21 17 12 5 1 6 7 9 8 8 11 15 22 20 23 27 31 27 27 27 29 28 31 30 28 28 30 27 25 23 21 22
2 1 3 3 4 7 4 2 5 4 9 12 14 11 10 1 6 6 6 5 6 12 16 22 20 22 24 28 27 25 28 30 32 30 30 29 29 30 28 27 26 25 21 25
7 5 11 5 5 8 12 6 4 4 4 5 8 7 6 6 8 11 3 8 13 17 21 21 19 21 26 30 27 26 29 31 33 33 32 30 30 32 30 29 28 26 22 22
11 10 6 6 7 11 14 10 10 4 1 4 6 7 8 10 9 9 11 12 17 19 20 21 19 22 28 28 24 26 28 33 32 31 32 31 32 33 32 30 29 26 22 21
6 7 8 13 9 1 20 6 15 3 4 5 5 8 10 9 9 11 13 14 17 21 22 22 19 23 30 29 25 26 31 32 31 30 32 34 34 33 33 30 27 22 20 20
6 4 4 3 11 15 11 14 5 6 9 6 9 10 6 12 13 13 12 10 14 20 22 23 21 24 30 28 27 29 32 29 31 32 31 32 29 28 28 28 24 22 20 20
3 13 7 5 12 1 10 15 17 12 12 10 11 11 13 12 13 13 12 12 20 23 25 23 23 27 31 30 30 32 36 31 29 29 29 29 28 26 26 25 25 24 27 27
8 8 9 9 10 6 6 12 13 12 13 16 11 9 10 11 14 15 14 21 23 24 27 25 26 28 31 30 31 36 36 31 30 26 26 25 26 26 24 22 24 24 29 27
Wind_Direction
21 90 135 166 181 106 123 127 128 82 49 314 287 279 264 235 229 250 255 251 241 244 254 246 238 234 237 235 226 227 222 220 211 213 216 232 234 238 240 240 257 271 291 292
63 90 187 101 127 122 115 130 103 98 36 341 333 290 318 314 263 285 281 265 269 270 260 252 250 234 229 233 232 226 226 221 217 217 223 229 234 244 245 248 255 263 274 285
81 100 166 121 123 116 84 144 151 115 96 58 328 294 29 31 9 9 341 309 315 296 289 285 264 248 236 231 231 229 229 228 224 223 226 229 238 246 245 246 251 260 256 259
83 309 101 97 80 100 101 69 109 99 178 153 358 124 47 5 84 55 38 44 30 6 347 322 291 267 252 250 246 240 235 232 230 225 229 233 240 250 254 248 258 268 258 259
53 58 56 62 42 335 113 113 93 90 93 166 18 184 95 273 36 28 18 10 16 5 355 350 347 327 291 264 252 254 245 240 234 233 234 242 246 250 253 248 261 263 261 258
65 21 31 66 45 86 138 109 84 93 137 101 345 341 64 44 3 24 49 36 18 3 6 16 20 13 353 332 297 275 256 248 242 239 239 241 247 250 247 254 256 256 257 257
21 14 355 43 86 43 105 156 156 130 96 119 344 305 65 32 45 81 76 50 32 24 26 25 26 15 5 357 340 310 281 262 249 245 244 244 246 246 245 248 255 256 257 253
149 177 15 358 21 157 72 323 30 140 144 123 21 220 112 90 103 101 90 44 31 34 34 33 21 10 357 352 347 331 307 278 256 248 247 248 249 250 251 253 250 259 259 259
159 78 327 36 13 342 111 67 17 98 28 249 317 183 74 137 114 115 58 38 36 37 31 18 12 7 347 333 327 324 305 286 270 261 257 253 251 247 248 251 251 253 259 258
133 115 34 343 251 60 27 126 103 30 146 184 228 291 140 170 155 79 31 39 40 22 2 353 357 352 347 336 324 316 305 288 277 266 255 251 248 249 249 251 250 250 254 257
130 73 23 189 28 120 97 126 52 85 352 116 177 238 181 174 157 37 28 36 358 343 349 353 354 356 347 337 328 318 312 302 292 286 277 266 260 256 251 249 250 249 251 251
163 103 104 88 149 303 248 180 190 217 155 106 157 246 183 142 164 210 30 355 343 358 348 353 357 350 358 358 352 340 330 323 315 303 289 279 274 265 262 262 260 256 253 252
174 118 118 105 164 221 212 76 99 107 163 208 212 226 96 166 221 318 346 340 339 339 345 354 357 4 358 351 342 338 334 333 331 323 308 295 284 275 268 264 262 262 260 258
82 136 201 180 123 125 149 169 174 177 197 242 239 267 222 262 300 318 319 323 324 320 325 336 350 348 342 338 334 329 327 328 328 325 317 306 300 292 283 277 270 267 264 258
80 141 153 79 114 96 171 195 199 215 226 228 265 270 269 271 283 293 304 305 314 313 330 334 335 333 332 332 330 328 325 322 322 317 311 307 305 301 295 287 277 269 263 262
17 136 93 39 78 123 249 239 236 237 243 253 256 268 281 272 270 245 268 282 284 293 291 322 330 331 325 321 310 311 313 312 314 311 308 310 307 302 296 291 284 273 265 258
121 132 135 224 38 346 278 231 220 219 219 222 229 242 281 255 262 243 280 284 282 275 234 305 320 331 318 304 301 304 309 308 307 305 304 302 304 303 298 291 284 274 266 262
135 118 111 116 95 218 254 303 272 238 254 234 254 263 277 288 296 264 252 244 258 248 229 280 324 324 308 306 304 310 314 308 304 301 300 301 296 300 301 291 281 277 269 261
15 134 120 191 211 315 299 235 181 190 264 221 232 253 268 302 257 255 214 215 266 267 244 289 308 300 297 300 300 304 305 304 300 297 296 298 295 296 298 289 283 277 268 264
232 254 186 176 205 216 227 147 155 141 277 236 222 244 258 319 265 288 208 222 274 282 273 292 298 294 292 295 298 296 296 298 297 296 296 297 293 292 288 285 283 281 272 265
164 184 205 182 229 273 241 180 184 141 250 150 174 205 214 210 246 299 231 273 287 285 287 291 295 293 293 297 296 292 296 295 299 300 298 294 294 294 292 286 284 281 273 266
168 161 184 180 213 261 160 137 196 194 137 150 180 204 215 235 268 274 280 285 289 290 295 291 291 291 293 292 288 283 284 289 295 297 298 297 295 295 293 284 282 273 264 255
196 187 178 192 205 173 183 203 209 139 144 190 199 229 231 256 266 278 283 287 286 289 289 288 282 284 287 287 283 278 282 292 296 296 293 293 294 293 292 284 274 261 253 247
224 178 210 138 237 222 229 245 240 208 217 214 219 232 222 253 266 267 269 268 271 283 284 287 284 281 282 286 285 279 283 290 292 291 291 292 290 291 288 284 274 261 253 246
171 145 179 263 271 301 245 232 236 219 221 237 244 240 242 253 261 265 274 276 278 281 282 280 275 276 279 286 285 286 288 291 289 290 291 290 287 285 283 276 267 259 257 251
194 176 190 215 213 185 227 213 218 210 225 230 232 251 238 235 254 261 262 263 267 273 277 279 275 275 279 283 284 291 293 292 290 285 287 285 282 280 276 276 281 272 259 257